Date,TemperatureHighF,TemperatureAvgF,TemperatureLowF,DewpointHighF,DewpointAvgF,DewpointLowF,HumidityHigh,HumidityAvg,HumidityLow,PressureMaxIn,PressureMinIn,WindSpeedMaxMPH,WindSpeedAvgMPH,GustSpeedMaxMPH,PrecipitationSumIn
2013-2-1,30.3,24.5,17.9,23.6,11.7,5.1,88,58,45,30.38,29.81,10,4,17,0.00
2013-2-2,28.3,21.7,13.1,21.1,12.7,5.3,83,68,56,30.38,30.00,4,0,9,0.00
2013-2-3,34.6,28.1,21.9,28.7,23.6,17.0,92,84,63,30.00,29.81,7,1,10,0.00
2013-2-4,36.8,30.4,24.8,28.5,18.4,12.5,89,61,49,30.08,29.87,10,2,14,0.00
2013-2-5,36.8,32.8,30.7,34.1,30.3,27.8,94,90,86,29.93,29.84,1,0,1,0.03
2013-2-6,39.3,34.6,27.0,33.5,27.8,20.9,94,77,63,30.33,29.92,6,1,7,0.00
2013-2-7,39.3,31.7,23.7,28.5,24.4,19.3,89,75,59,30.42,30.20,5,2,9,0.00
2013-2-8,40.2,35.7,32.7,36.8,30.3,23.4,91,81,65,30.19,29.78,13,2,17,0.03
2013-2-9,40.2,32.1,24.5,23.5,19.5,16.7,73,60,41,30.39,29.97,9,4,17,0.00
2013-2-10,44.3,32.8,17.5,24.8,19.5,13.5,88,61,38,30.45,30.18,5,2,11,0.00
2013-2-11,65.7,49.0,35.2,51.5,37.4,24.6,95,69,27,30.17,29.65,9,3,17,0.16
2013-2-12,55.4,47.0,32.4,31.8,28.5,25.0,77,49,34,29.97,29.82,9,3,14,0.00
2013-2-13,41.3,34.4,26.8,33.0,28.9,23.4,94,81,64,29.93,29.66,6,1,6,0.06
2013-2-14,48.9,38.3,30.7,33.7,30.4,25.9,94,74,51,29.99,29.77,3,0,6,0.05
2013-2-15,54.1,40.5,30.1,36.8,32.7,25.8,95,75,50,30.02,29.91,5,1,7,0.22
2013-2-16,37.3,33.6,28.8,33.2,25.3,16.9,95,73,52,29.98,29.87,5,2,7,0.01
2013-2-17,29.7,26.2,22.7,17.8,12.7,8.8,68,57,44,30.22,29.86,12,4,19,0.00
2013-2-18,42.6,30.5,16.8,23.4,13.2,7.2,73,49,34,30.37,30.09,4,1,10,0.00
2013-2-19,52.4,39.8,26.2,42.6,29.2,20.3,84,66,48,30.09,29.64,11,3,17,0.05
2013-2-20,36.2,30.0,24.6,21.9,14.9,10.4,57,53,47,30.17,29.85,13,6,18,0.00
2013-2-21,37.0,28.9,23.9,18.7,15.4,11.3,73,57,46,30.33,30.13,7,2,11,0.00
2013-2-22,31.9,29.3,25.6,28.9,23.8,17.7,92,80,67,30.37,30.18,5,1,9,0.00
2013-2-23,45.4,36.8,31.8,40.7,33.8,28.7,94,89,81,30.17,29.82,3,1,4,0.02
2013-2-24,47.5,39.3,30.9,37.9,29.7,19.7,94,70,46,30.12,29.80,10,2,14,0.00
2013-2-25,44.9,34.2,24.2,26.0,22.8,18.9,83,64,45,30.21,30.11,4,0,5,0.00
2013-2-26,40.6,35.8,28.3,38.7,30.9,22.3,95,83,69,30.19,29.64,7,2,11,0.89
2013-2-27,53.2,43.4,36.9,42.2,36.2,34.1,96,78,51,29.68,29.55,11,2,14,0.02
2013-2-28,43.7,40.9,35.7,36.1,30.3,27.6,78,66,56,29.72,29.63,9,3,13,0.00